| time (UTC) | temp C | wind direction | speed KPH | gust KPH | rain 1hr cm | rain 24hr cm | rain mn cm | humidity % | barometer mb |
| 20260506081011 | 6 | 266 | 8.0 | 11.3 | 0.00 | 0.00 | 0.00 | 55 | 1006.2 |
| 20260506073011 | 4 | 283 | 8.0 | 9.7 | 0.00 | 0.00 | 0.00 | 56 | 1005.7 |
| 20260506072011 | 4 | 275 | 9.7 | 14.5 | 0.00 | 0.00 | 0.00 | 56 | 1005.5 |
| 20260506071011 | 3 | 270 | 9.7 | 11.3 | 0.00 | 0.00 | 0.00 | 56 | 1005.5 |
| 20260506062011 | 3 | 270 | 11.3 | 14.5 | 0.00 | 0.00 | 0.00 | 57 | 1004.8 |
| 20260506061011 | 2 | 280 | 9.7 | 11.3 | 0.00 | 0.00 | 0.00 | 58 | 1004.7 |
| 20260506051010 | 1 | 272 | 8.0 | 11.3 | 0.00 | 0.00 | 0.00 | 58 | 1004.2 |
| 20260506045010 | 1 | 279 | 9.7 | 12.9 | 0.00 | 0.00 | 0.00 | 58 | 1004.0 |
| 20260506044011 | 1 | 267 | 9.7 | 8.0 | 0.00 | 0.00 | 0.00 | 58 | 1004.0 |
| 20260506043011 | 1 | 259 | 9.7 | 14.5 | 0.00 | 0.00 | 0.00 | 58 | 1004.0 |
| 20260506042011 | 1 | 273 | 12.9 | 14.5 | 0.00 | 0.00 | 0.00 | 59 | 1003.8 |
| 20260506041011 | 1 | 258 | 12.9 | 16.1 | 0.00 | 0.00 | 0.00 | 59 | 1003.8 |
| 20260506040011 | 1 | 304 | 11.3 | 14.5 | 0.00 | 0.00 | 0.00 | 58 | 1003.6 |
| 20260506035010 | 1 | 289 | 11.3 | 14.5 | 0.00 | 0.00 | 0.00 | 58 | 1003.6 |
| 20260506034011 | 0 | 264 | 9.7 | 12.9 | 0.00 | 0.00 | 0.00 | 59 | 1003.4 |
| 20260506033011 | 0 | 254 | 8.0 | 11.3 | 0.00 | 0.00 | 0.00 | 59 | 1003.4 |
| 20260506032011 | 0 | 267 | 9.7 | 11.3 | 0.00 | 0.00 | 0.00 | 59 | 1003.4 |
| 20260506031011 | 0 | 264 | 6.4 | 9.7 | 0.00 | 0.00 | 0.00 | 59 | 1003.4 |
| 20260506030011 | 0 | 270 | 9.7 | 14.5 | 0.00 | 0.00 | 0.00 | 59 | 1003.3 |
| 20260506025011 | 0 | 262 | 6.4 | 6.4 | 0.00 | 0.00 | 0.00 | 58 | 1003.2 |
| 20260506024011 | 0 | 269 | 8.0 | 11.3 | 0.00 | 0.00 | 0.00 | 58 | 1003.2 |
| 20260506023011 | 0 | 274 | 4.8 | 8.0 | 0.00 | 0.00 | 0.00 | 58 | 1003.2 |
| 20260506022011 | 0 | 253 | 8.0 | 12.9 | 0.00 | 0.00 | 0.00 | 57 | 1003.2 |
| 20260506021011 | 0 | 252 | 4.8 | 11.3 | 0.00 | 0.00 | 0.00 | 57 | 1003.1 |
| 20260506020011 | 0 | 231 | 9.7 | 4.8 | 0.00 | 0.00 | 0.00 | 56 | 1003.0 |
| 20260506015011 | 0 | 253 | 4.8 | 8.0 | 0.00 | 0.00 | 0.00 | 56 | 1003.0 |
| 20260506014011 | 0 | 253 | 6.4 | 8.0 | 0.00 | 0.00 | 0.00 | 56 | 1003.0 |
| 20260506013011 | 0 | 248 | 6.4 | 6.4 | 0.00 | 0.00 | 0.00 | 55 | 1002.9 |
| 20260506012010 | 0 | 254 | 8.0 | 9.7 | 0.00 | 0.00 | 0.00 | 55 | 1002.8 |
| 20260506011011 | 0 | 282 | 9.7 | 12.9 | 0.00 | 0.00 | 0.00 | 55 | 1002.7 |
| 20260506010011 | 0 | 266 | 11.3 | 16.1 | 0.00 | 0.00 | 0.00 | 55 | 1002.6 |
| 20260506005011 | 0 | 245 | 11.3 | 9.7 | 0.00 | 0.00 | 0.00 | 54 | 1002.5 |
| 20260506004011 | 0 | 264 | 8.0 | 9.7 | 0.00 | 0.00 | 0.00 | 54 | 1002.5 |
| 20260506003011 | 0 | 262 | 9.7 | 6.4 | 0.00 | 0.00 | 0.00 | 53 | 1002.5 |
| 20260506002011 | 0 | 267 | 8.0 | 12.9 | 0.00 | 0.00 | 0.00 | 53 | 1002.4 |
| 20260506001011 | 0 | 247 | 8.0 | 11.3 | 0.00 | 0.00 | 0.00 | 52 | 1002.3 |
| 20260506000011 | 0 | 268 | 9.7 | 14.5 | 0.00 | 0.00 | 0.00 | 52 | 1002.2 |
| 20260505235010 | 0 | 283 | 8.0 | 14.5 | 0.00 | 0.00 | 0.00 | 51 | 1002.2 |
| 20260505234011 | 1 | 263 | 8.0 | 8.0 | 0.00 | 0.00 | 0.00 | 51 | 1002.2 |
| 20260505233011 | 1 | 257 | 6.4 | 9.7 | 0.00 | 0.00 | 0.00 | 51 | 1002.1 |
| 20260505232011 | 1 | 260 | 9.7 | 14.5 | 0.00 | 0.00 | 0.00 | 51 | 1002.1 |
| 20260505231011 | 1 | 255 | 8.0 | 9.7 | 0.00 | 0.00 | 0.00 | 50 | 1002.1 |
| 20260505230011 | 1 | 266 | 6.4 | 6.4 | 0.00 | 0.00 | 0.00 | 50 | 1002.1 |
| 20260505225011 | 1 | 257 | 6.4 | 8.0 | 0.00 | 0.00 | 0.00 | 49 | 1002.0 |
| 20260505224010 | 1 | 274 | 6.4 | 8.0 | 0.00 | 0.00 | 0.00 | 49 | 1002.0 |
| 20260505223011 | 1 | 244 | 6.4 | 9.7 | 0.00 | 0.00 | 0.00 | 49 | 1002.0 |
| 20260505222011 | 1 | 260 | 8.0 | 6.4 | 0.00 | 0.00 | 0.00 | 48 | 1001.9 |
| 20260505221010 | 1 | 255 | 6.4 | 9.7 | 0.00 | 0.00 | 0.00 | 48 | 1001.9 |
| 20260505220011 | 1 | 272 | 4.8 | 8.0 | 0.00 | 0.00 | 0.00 | 48 | 1001.9 |
| 20260505215010 | 1 | 275 | 4.8 | 6.4 | 0.00 | 0.00 | 0.00 | 47 | 1001.9 |
| 20260505214010 | 1 | 236 | 4.8 | 6.4 | 0.00 | 0.00 | 0.00 | 47 | 1001.9 |
| 20260505213011 | 1 | 263 | 6.4 | 8.0 | 0.00 | 0.00 | 0.00 | 47 | 1001.9 |
| 20260505212011 | 2 | 260 | 4.8 | 9.7 | 0.00 | 0.00 | 0.00 | 46 | 1001.8 |
| 20260505211011 | 2 | 261 | 4.8 | 6.4 | 0.00 | 0.00 | 0.00 | 46 | 1001.7 |
| 20260505210011 | 2 | 277 | 8.0 | 11.3 | 0.00 | 0.00 | 0.00 | 46 | 1001.7 |
| 20260505205011 | 2 | 273 | 4.8 | 8.0 | 0.00 | 0.00 | 0.00 | 46 | 1001.6 |
| 20260505204011 | 2 | 254 | 4.8 | 4.8 | 0.00 | 0.00 | 0.00 | 45 | 1001.6 |
| 20260505203011 | 2 | 258 | 4.8 | 3.2 | 0.00 | 0.00 | 0.00 | 44 | 1001.5 |
| 20260505202011 | 2 | 259 | 4.8 | 6.4 | 0.00 | 0.00 | 0.00 | 44 | 1001.4 |
| 20260505201011 | 2 | 273 | 3.2 | 4.8 | 0.00 | 0.00 | 0.00 | 44 | 1001.4 |
| 20260505200011 | 2 | 246 | 3.2 | 1.6 | 0.00 | 0.00 | 0.00 | 43 | 1001.3 |
| 20260505195011 | 2 | 249 | 6.4 | 6.4 | 0.00 | 0.00 | 0.00 | 43 | 1001.3 |
| 20260505194011 | 3 | 254 | 4.8 | 6.4 | 0.00 | 0.00 | 0.00 | 42 | 1001.2 |
| 20260505193011 | 3 | 260 | 6.4 | 9.7 | 0.00 | 0.00 | 0.00 | 41 | 1001.1 |
| 20260505192011 | 3 | 315 | 3.2 | 3.2 | 0.00 | 0.00 | 0.00 | 40 | 1001.1 |
| 20260505191011 | 3 | 245 | 4.8 | 3.2 | 0.00 | 0.00 | 0.00 | 40 | 1001.0 |
| 20260505190011 | 4 | 303 | 4.8 | 6.4 | 0.00 | 0.00 | 0.00 | 39 | 1001.0 |
| 20260505185011 | 4 | 253 | 3.2 | 3.2 | 0.00 | 0.00 | 0.00 | 39 | 1000.9 |
| 20260505184011 | 5 | 245 | 6.4 | 6.4 | 0.00 | 0.00 | 0.00 | 38 | 1000.9 |
| 20260505183011 | 5 | 271 | 4.8 | 6.4 | 0.00 | 0.00 | 0.00 | 38 | 1000.7 |
| 20260505182011 | 5 | 275 | 8.0 | 8.0 | 0.00 | 0.00 | 0.00 | 37 | 1000.6 |
| 20260505181011 | 6 | 288 | 8.0 | 9.7 | 0.00 | 0.00 | 0.00 | 37 | 1000.5 |
| 20260505180011 | 6 | 256 | 16.1 | 14.5 | 0.00 | 0.00 | 0.00 | 37 | 1000.5 |
| 20260505175011 | 6 | 277 | 12.9 | 19.3 | 0.00 | 0.00 | 0.00 | 36 | 1000.3 |
| 20260505174011 | 6 | 284 | 12.9 | 16.1 | 0.00 | 0.00 | 0.00 | 36 | 1000.2 |
| 20260505173011 | 6 | 297 | 9.7 | 14.5 | 0.00 | 0.00 | 0.00 | 36 | 1000.2 |
| 20260505172011 | 7 | 256 | 8.0 | 9.7 | 0.00 | 0.00 | 0.00 | 35 | 1000.1 |
| 20260505171011 | 7 | 264 | 12.9 | 14.5 | 0.00 | 0.00 | 0.00 | 34 | 1000.1 |
| 20260505170011 | 8 | 266 | 11.3 | 14.5 | 0.00 | 0.00 | 0.00 | 33 | 1000.1 |
| 20260505165011 | 10 | 282 | 12.9 | 14.5 | 0.00 | 0.00 | 0.00 | 32 | 1000.0 |
| 20260505164011 | 11 | 278 | 16.1 | 17.7 | 0.00 | 0.00 | 0.00 | 30 | 999.9 |
| 20260505163011 | 11 | 296 | 19.3 | 16.1 | 0.00 | 0.00 | 0.00 | 30 | 999.8 |
| 20260505162011 | 11 | 270 | 17.7 | 19.3 | 0.00 | 0.00 | 0.00 | 31 | 999.6 |
| 20260505161011 | 10 | 286 | 16.1 | 19.3 | 0.00 | 0.00 | 0.00 | 32 | 999.6 |
| 20260505153011 | 8 | 302 | 14.5 | 17.7 | 0.00 | 0.00 | 0.00 | 33 | 999.2 |
| 20260505152011 | 8 | 280 | 12.9 | 17.7 | 0.00 | 0.00 | 0.00 | 33 | 999.1 |
| 20260505151011 | 8 | 315 | 17.7 | 19.3 | 0.00 | 0.00 | 0.00 | 33 | 999.1 |
| 20260505125011 | 10 | 264 | 19.3 | 30.6 | 0.00 | 0.00 | 0.00 | 35 | 998.2 |
| 20260505124010 | 10 | 295 | 20.9 | 22.5 | 0.00 | 0.00 | 0.00 | 35 | 998.1 |
| 20260505123011 | 10 | 318 | 11.3 | 17.7 | 0.00 | 0.00 | 0.00 | 36 | 997.9 |
| 20260505122011 | 10 | 291 | 16.1 | 19.3 | 0.00 | 0.00 | 0.00 | 37 | 997.9 |
| 20260505121011 | 9 | 308 | 19.3 | 25.7 | 0.00 | 0.00 | 0.00 | 37 | 997.8 |
| 20260505120011 | 8 | 310 | 14.5 | 16.1 | 0.00 | 0.00 | 0.00 | 37 | 997.6 |
| 20260505115011 | 8 | 297 | 25.7 | 25.7 | 0.00 | 0.00 | 0.00 | 38 | 997.7 |
| 20260505114011 | 9 | 305 | 20.9 | 27.4 | 0.00 | 0.00 | 0.00 | 38 | 997.5 |
| 20260505113011 | 9 | 302 | 17.7 | 24.1 | 0.00 | 0.00 | 0.00 | 38 | 997.4 |
| 20260505112011 | 10 | 311 | 14.5 | 24.1 | 0.00 | 0.00 | 0.00 | 39 | 997.4 |
| 20260505111011 | 9 | 280 | 16.1 | 27.4 | 0.00 | 0.00 | 0.00 | 39 | 997.2 |
| 20260505102010 | 9 | 285 | 19.3 | 30.6 | 0.00 | 0.00 | 0.00 | 41 | 996.7 |
| 20260505101011 | 8 | 301 | 14.5 | 22.5 | 0.00 | 0.00 | 0.00 | 43 | 996.6 |
| 20260505100011 | 8 | 294 | 12.9 | 19.3 | 0.00 | 0.00 | 0.00 | 43 | 996.6 |
| 20260505095010 | 8 | 300 | 14.5 | 14.5 | 0.00 | 0.00 | 0.00 | 44 | 996.6 |
| 20260505094011 | 8 | 267 | 16.1 | 16.1 | 0.00 | 0.00 | 0.00 | 44 | 996.7 |
| 20260505093011 | 8 | 304 | 14.5 | 17.7 | 0.00 | 0.00 | 0.00 | 45 | 996.5 |
| 20260505092010 | 8 | 319 | 9.7 | 14.5 | 0.00 | 0.00 | 0.00 | 46 | 996.4 |
| 20260505091011 | 8 | 274 | 12.9 | 17.7 | 0.00 | 0.00 | 0.00 | 45 | 996.4 |
| 20260505090012 | 8 | 260 | 12.9 | 17.7 | 0.00 | 0.00 | 0.00 | 47 | 996.4 |
| 20260505085010 | 8 | 256 | 12.9 | 20.9 | 0.00 | 0.00 | 0.00 | 46 | 996.3 |
| 20260505084011 | 8 | 302 | 14.5 | 22.5 | 0.00 | 0.00 | 0.00 | 48 | 996.3 |
| 20260505083011 | 8 | 313 | 16.1 | 20.9 | 0.00 | 0.00 | 0.00 | 48 | 996.1 |
| 20260505082011 | 8 | 254 | 12.9 | 17.7 | 0.00 | 0.00 | 0.00 | 49 | 996.0 |